Location: Newark
(50.8922°N, 11.6094°E)
Time: 19:48:31
(UTC+00:00)

N. Korean satellite - Pass Details

Date: 27 January 2020
Orbit: 456 x 506 km, 97.2° (Epoch: 17 February)

Event Time Altitude Azimuth Distance (km) Brightness Sun altitude
Rises 04:49:53 0° 17° (NNE) 2,540 10.4 -20.0°
Reaches altitude 10° 04:51:59 10° 23° (NNE) 1,665 9.5 -19.6°
Maximum altitude 04:55:28 48° 99° (E) 644 7.6 -19.1°
Drops below altitude 10° 04:58:58 10° 175° (S) 1,678 9.4 -18.6°
Sets 05:01:06 0° 181° (S) 2,563 10.3 -18.2°
